Osceola, WI

3:43 AM CDT on August 22, 2017 (GMT -0500)
Simenstad Municipal

Weather History for KOEO - October, 2013

Change the Weather History Date:

Wednesday, October 2, 2013

  Actual Average (KANE) Record (KANE)
Temperature  
Mean Temperature 56 °F -  
Max Temperature 75 °F 61 °F 86 °F (2001)
Min Temperature 37 °F 40 °F 23 °F (2003)
Degree Days  
Heating Degree Days 9    
Growing Degree Days 6 (Base 50)    
Moisture  
Dew Point 42 °F    
Average Humidity 67    
Maximum Humidity 99    
Minimum Humidity 23    
Precipitation  
Precipitation 0.57 in - - ()
Sea Level Pressure  
Sea Level Pressure 30.01 in    
Wind  
Wind Speed 4 mph (ESE)    
Max Wind Speed 21 mph    
Max Gust Speed 24 mph    
Visibility 10 miles    
Events Rain    
Averages and records for this station are not official NWS values.
T = Trace of Precipitation, MM = Missing Value Source: NWS Daily Summary

Daily Weather History Graph

Daily Weather History Graph

Search for Another Location

Airport or City:

Trip Planner

Search our weather history database for the weather conditions in past years. The results will help you decide how hot, cold, wet, or windy it might be!

Date:

Astronomy

Oct. 02, 2013 Rise Set
Actual Time 7:10 AM CDT 6:48 PM CDT
Civil Twilight 6:41 AM CDT 7:18 PM CDT
Nautical Twilight 6:06 AM CDT 7:52 PM CDT
Astronomical Twilight 5:32 AM CDT 8:26 PM CDT
Moon 4:38 AM CDT (10/2) 5:28 PM CDT (10/2)
Length of Visible Light 12h 37m
Length of Day
11h 38m
Waning Crescent, 6% of the Moon is Illuminated
Oct 2
Waning Crescent
Oct 4
New
Oct 11
First Quarter
Oct 18
Full
Oct 26
Last Quarter

Hourly Weather History & Observations

Time (CDT) Temp. Windchill Dew Point Humidity Pressure Visibility Wind Dir Wind Speed Gust Speed Precip Events Conditions
12:15 AM 43.3 °F - 40.3 °F 89% 30.01 in 10.0 mi Calm Calm - N/A   Clear
12:35 AM 43.0 °F - 39.9 °F 89% 30.02 in 10.0 mi Calm Calm - N/A   Clear
12:55 AM 42.8 °F - 40.1 °F 90% 30.02 in 10.0 mi Calm Calm - N/A   Clear
1:15 AM 42.3 °F - 40.1 °F 92% 30.03 in 10.0 mi Calm Calm - N/A   Clear
1:35 AM 41.4 °F - 38.8 °F 91% 30.04 in 10.0 mi Calm Calm - N/A   Clear
1:55 AM 39.9 °F - 38.7 °F 95% 30.04 in 10.0 mi Calm Calm - N/A   Clear
2:15 AM 41.4 °F - 39.6 °F 93% 30.04 in 10.0 mi Calm Calm - N/A   Clear
2:35 AM 40.6 °F - 38.5 °F 92% 30.04 in 10.0 mi Calm Calm - N/A   Clear
2:55 AM 40.3 °F - 38.8 °F 95% 30.04 in 10.0 mi Calm Calm - N/A   Clear
3:15 AM 40.5 °F - 38.5 °F 93% 30.05 in 10.0 mi Calm Calm - N/A   Clear
3:35 AM 39.9 °F - 38.3 °F 94% 30.05 in 10.0 mi Calm Calm - N/A   Clear
3:55 AM 38.5 °F - 37.9 °F 98% 30.06 in 10.0 mi Calm Calm - N/A   Clear
4:15 AM 39.2 °F - 37.9 °F 95% 30.06 in 10.0 mi Calm Calm - N/A   Clear
4:35 AM 38.8 °F - 37.0 °F 93% 30.07 in 10.0 mi Calm Calm - N/A   Clear
4:55 AM 38.5 °F - 36.5 °F 93% 30.07 in 10.0 mi Calm Calm - N/A   Clear
5:15 AM 37.2 °F - 36.5 °F 97% 30.07 in 10.0 mi Calm Calm - N/A   Clear
5:35 AM 38.7 °F - 38.1 °F 98% 30.06 in 10.0 mi Calm Calm - N/A   Clear
5:55 AM 39.2 °F - 38.5 °F 97% 30.06 in 10.0 mi Calm Calm - N/A   Clear
6:15 AM 37.9 °F - 36.9 °F 96% 30.06 in 10.0 mi Calm Calm - N/A   Clear
6:35 AM 38.1 °F - 37.2 °F 97% 30.07 in 10.0 mi Calm Calm - N/A   Clear
6:55 AM 38.5 °F - 37.8 °F 97% 30.07 in 10.0 mi Calm Calm - N/A   Clear
7:15 AM 38.8 °F 36.5 °F 38.3 °F 98% 30.07 in 10.0 mi ESE 3.5 mph - N/A   Clear
7:35 AM 39.2 °F - 38.5 °F 97% 30.08 in 10.0 mi Calm Calm - N/A   Clear
7:55 AM 39.6 °F - 39.0 °F 98% 30.08 in 10.0 mi Calm Calm - N/A   Clear
8:15 AM 43.7 °F - 42.6 °F 96% 30.08 in 10.0 mi Calm Calm - N/A   Clear
8:35 AM 47.3 °F - 44.6 °F 90% 30.08 in 10.0 mi ESE 3.5 mph - N/A   Clear
8:55 AM 50.0 °F - 45.7 °F 85% 30.08 in 10.0 mi Calm Calm - N/A   Clear
9:15 AM 54.3 °F - 46.0 °F 74% 30.08 in 10.0 mi ESE 3.5 mph - N/A   Clear
9:35 AM 57.7 °F - 46.9 °F 67% 30.08 in 10.0 mi SE 3.5 mph - N/A   Clear
9:55 AM 61.7 °F - 46.0 °F 56% 30.08 in 10.0 mi Calm Calm - N/A   Clear
10:15 AM 64.0 °F - 42.8 °F 46% 30.09 in 10.0 mi Calm Calm - N/A   Clear
10:35 AM 63.0 °F - 43.5 °F 49% 30.07 in 10.0 mi ESE 6.9 mph - N/A   Clear
10:55 AM 64.8 °F - 44.6 °F 48% 30.07 in 10.0 mi SE 4.6 mph - N/A   Clear
11:15 AM 65.8 °F - 45.3 °F 47% 30.07 in 10.0 mi ESE 5.8 mph - N/A   Clear
11:35 AM 69.8 °F - 41.7 °F 36% 30.06 in 10.0 mi ESE 9.2 mph - N/A   Clear
11:55 AM 71.4 °F - 37.2 °F 29% 30.06 in 10.0 mi SE 9.2 mph - N/A   Clear
12:15 PM 71.6 °F - 37.8 °F 29% 30.05 in 10.0 mi SE 8.1 mph - N/A   Clear
12:35 PM 73.6 °F - 35.8 °F 25% 30.05 in 10.0 mi SE 11.5 mph 16.1 mph N/A   Clear
12:55 PM 73.2 °F - 36.7 °F 26% 30.05 in 10.0 mi SE 9.2 mph - N/A   Clear
1:15 PM 74.8 °F - 35.8 °F 24% 30.04 in 10.0 mi ESE 10.4 mph 16.1 mph N/A   Clear
1:35 PM 75.2 °F - 35.8 °F 24% 30.03 in 10.0 mi ESE 12.7 mph 16.1 mph N/A   Clear
1:55 PM 74.8 °F - 36.0 °F 24% 30.02 in 10.0 mi ESE 13.8 mph - N/A   Clear
2:15 PM 73.0 °F - 36.0 °F 26% 30.01 in 10.0 mi SE 11.5 mph - N/A   Mostly Cloudy
2:35 PM 73.2 °F - 36.1 °F 26% 29.99 in 10.0 mi ESE 15.0 mph - N/A   Overcast
2:55 PM 73.9 °F - 34.2 °F 23% 29.98 in 10.0 mi SE 12.7 mph 16.1 mph N/A   Overcast
3:15 PM 73.2 °F - 35.6 °F 25% 29.97 in 10.0 mi SE 13.8 mph 18.4 mph N/A   Overcast
3:35 PM 74.5 °F - 35.1 °F 24% 29.96 in 10.0 mi SE 15.0 mph 19.6 mph N/A   Overcast
3:55 PM 75.0 °F - 36.5 °F 25% 29.95 in 10.0 mi SE 12.7 mph 18.4 mph N/A   Scattered Clouds
4:15 PM 73.6 °F - 36.3 °F 26% 29.94 in 10.0 mi SE 12.7 mph - N/A   Mostly Cloudy
4:35 PM 73.4 °F - 36.0 °F 26% 29.93 in 10.0 mi SE 11.5 mph 21.9 mph N/A   Scattered Clouds
4:55 PM 72.5 °F - 37.8 °F 28% 29.92 in 10.0 mi SE 13.8 mph 19.6 mph N/A   Scattered Clouds
5:15 PM 71.2 °F - 38.3 °F 30% 29.92 in 10.0 mi SE 10.4 mph - N/A   Mostly Cloudy
5:35 PM 70.9 °F - 38.5 °F 31% 29.92 in 10.0 mi SE 8.1 mph - N/A   Overcast
5:55 PM 70.7 °F - 38.3 °F 31% 29.91 in 10.0 mi SE 10.4 mph - N/A   Overcast
6:15 PM 70.3 °F - 37.8 °F 30% 29.91 in 10.0 mi SE 10.4 mph 16.1 mph N/A   Overcast
6:35 PM 69.8 °F - 38.5 °F 32% 29.94 in 10.0 mi NNE 4.6 mph - N/A   Overcast
6:55 PM 69.1 °F - 39.2 °F 34% 29.98 in 10.0 mi NNW 11.5 mph - N/A   Overcast
7:15 PM 63.0 °F - 48.7 °F 60% 29.95 in 10.0 mi NNE 8.1 mph - N/A Rain Light Rain
7:35 PM 63.7 °F - 46.9 °F 54% 29.94 in 10.0 mi East 6.9 mph - N/A   Overcast
7:55 PM 62.2 °F - 49.3 °F 63% 29.95 in 10.0 mi Calm Calm - N/A Rain Light Rain
8:15 PM 58.3 °F - 52.0 °F 80% 29.94 in 10.0 mi ENE 8.1 mph - 0.04 in Rain Heavy Rain
8:35 PM 56.7 °F - 53.4 °F 89% 29.98 in 10.0 mi WNW 3.5 mph - 0.07 in Rain Rain
8:55 PM 55.8 °F - 54.0 °F 94% 29.95 in 10.0 mi ENE 4.6 mph - 0.19 in Rain Light Rain
9:15 PM 55.9 °F - 54.0 °F 93% 29.96 in 10.0 mi NNE 6.9 mph - 0.01 in Rain Light Rain
9:35 PM 55.9 °F - 54.0 °F 93% 29.98 in 10.0 mi NNE 10.4 mph - 0.01 in   Overcast
9:55 PM 55.9 °F - 53.8 °F 92% 29.99 in 10.0 mi North 6.9 mph - 0.01 in Rain Light Rain
10:15 PM 55.6 °F - 53.8 °F 94% 29.99 in 7.0 mi ENE 6.9 mph - 0.06 in Rain Heavy Rain
10:35 PM 54.9 °F - 54.0 °F 97% 29.96 in 4.0 mi East 13.8 mph - 0.28 in Rain Heavy Rain
10:55 PM 54.9 °F - 54.5 °F 99% 29.91 in 7.0 mi ESE 20.7 mph 24.2 mph 0.34 in Rain Rain
11:15 PM 55.4 °F - 54.7 °F 97% 29.91 in 10.0 mi ESE 13.8 mph 23.0 mph 0.02 in Rain Light Rain
11:35 PM 55.6 °F - 54.5 °F 96% 29.91 in 10.0 mi ESE 9.2 mph 18.4 mph 0.02 in Rain Light Rain
11:55 PM 55.8 °F - 54.9 °F 97% 29.91 in 10.0 mi ENE 4.6 mph - 0.03 in Rain Light Rain